User: anonymous   Login
Location: Unspecified
(0.0000°N, 0.0000°E)
Time: 09:02:58
(UTC+02:00)
Language:

SJ-6B - Orbit

View from above orbital plane
View from above orbital plane
View from above satellite
View from above satellite

Ground track
Ground track

The orbit data is extracted from the following two-line orbital elements,

1 28415U 04035C   14297.74751286  .00005023  00000-0  36620-3 0  3281
2 28415 097.8016 303.2189 0057859 151.4465 208.9949 15.02840378553203
Epoch (UTC): 24 October 2014 17:56:25
Eccentricity: 0.0057859
inclination: 97.8016°
perigee height: 518 km
apogee height: 598 km
right ascension of ascending node: 303.2189°
argument of perigee: 151.4465°
revolutions per day: 15.02840378
mean anomaly at epoch: 208.9949°
orbit number at epoch: 55320

The dashed part of the orbit path shows where the satellite is in the earth's shadow,  

DLR